Haines, AK

11:36 AM AKDT on July 22, 2017 (GMT -0800)
Haines

Weather History for PAHN - March, 2012

Change the Weather History Date:

Wednesday, March 7, 2012

  Actual Average Record
Temperature  
Mean Temperature 32 °F -  
Max Temperature 36 °F 30 °F 45 °F (2005)
Min Temperature 28 °F 23 °F -4 °F (1974)
Degree Days  
Heating Degree Days 33    
Moisture  
Dew Point 29 °F    
Average Humidity 92    
Maximum Humidity 100    
Minimum Humidity 73    
Precipitation  
Precipitation 0.25 in - - ()
Sea Level Pressure  
Sea Level Pressure 29.88 in    
Wind  
Wind Speed 6 mph (WNW)    
Max Wind Speed 14 mph    
Max Gust Speed -    
Visibility 4 miles    
Events Fog , Snow    
Averages and records for this station are not official NWS values.
T = Trace of Precipitation, MM = Missing Value Source: NWS Daily Summary

Daily Weather History Graph

Daily Weather History Graph

Search for Another Location

Airport or City:

Trip Planner

Search our weather history database for the weather conditions in past years. The results will help you decide how hot, cold, wet, or windy it might be!

Date:

Astronomy

Mar. 07, 2012 Rise Set
Actual Time 6:39 AM AKST 5:47 PM AKST
Civil Twilight 5:59 AM AKST 6:27 PM AKST
Nautical Twilight 5:12 AM AKST 7:15 PM AKST
Astronomical Twilight 4:23 AM AKST 8:04 PM AKST
Moon 5:41 PM AKST (3/7) 5:54 AM AKST (3/7)
Length of Visible Light 12h 28m
Length of Day
11h 07m
Full, 100% of the Moon is Illuminated
Mar 7
Full
Mar 8
Full
Mar 14
Last Quarter
Mar 22
New
Mar 30
First Quarter

Hourly Weather History & Observations

Time (AKST) Temp. Windchill Dew Point Humidity Pressure Visibility Wind Dir Wind Speed Gust Speed Precip Events Conditions
12:54 AM 36.0 °F 30.3 °F 28.0 °F 73% 29.81 in 10.0 mi East 6.9 mph - N/A   Clear
1:54 AM 36.0 °F 29.6 °F 28.0 °F 73% 29.84 in 10.0 mi ENE 8.1 mph - N/A   Clear
2:54 AM 36.0 °F 30.3 °F 28.0 °F 73% 29.86 in 10.0 mi East 6.9 mph - N/A   Mostly Cloudy
3:54 AM 35.1 °F 29.3 °F 28.0 °F 76% 29.87 in 10.0 mi Variable 6.9 mph - N/A   Overcast
4:54 AM 28.9 °F 22.8 °F 26.1 °F 89% 29.89 in 10.0 mi Variable 5.8 mph - N/A   Overcast
5:54 AM 28.0 °F 20.0 °F 27.0 °F 96% 29.90 in 7.0 mi WNW 8.1 mph - N/A   Overcast
6:54 AM 28.0 °F 18.6 °F 27.0 °F 96% 29.90 in 10.0 mi WNW 10.4 mph - N/A   Overcast
7:54 AM 28.0 °F 18.6 °F 26.1 °F 92% 29.91 in 10.0 mi WNW 10.4 mph - N/A   Overcast
8:54 AM 28.9 °F 19.2 °F 26.1 °F 89% 29.91 in 10.0 mi WNW 11.5 mph - N/A   Scattered Clouds
9:54 AM 28.9 °F 18.2 °F 26.1 °F 89% 29.92 in 10.0 mi West 13.8 mph - N/A   Mostly Cloudy
10:54 AM 30.0 °F 20.0 °F 26.1 °F 85% 29.92 in 10.0 mi WNW 12.7 mph - N/A   Mostly Cloudy
11:13 AM 30.2 °F 20.2 °F 26.6 °F 86% 29.92 in 10.0 mi WNW 12.7 mph - N/A   Overcast
11:38 AM 30.2 °F 19.8 °F 26.6 °F 86% 29.92 in 10.0 mi WNW 13.8 mph - N/A   Mostly Cloudy
11:54 AM 30.0 °F 20.0 °F 26.1 °F 85% 29.92 in 10.0 mi WNW 12.7 mph - N/A   Overcast
12:54 PM 32.0 °F 24.8 °F 27.0 °F 82% 29.92 in 7.0 mi WNW 8.1 mph - 0.00 in Snow Light Snow
1:09 PM 32.0 °F 25.6 °F 28.4 °F 87% 29.91 in 2.0 mi West 6.9 mph - 0.00 in Snow Light Snow
1:30 PM 30.2 °F 25.4 °F 28.4 °F 93% 29.91 in 1.5 mi WNW 4.6 mph - 0.00 in Snow Light Snow
1:45 PM 30.2 °F 26.7 °F 28.4 °F 93% 29.91 in 1.2 mi West 3.5 mph - 0.00 in Snow Light Snow
1:54 PM 30.9 °F 26.2 °F 28.9 °F 92% 29.91 in 1.2 mi West 4.6 mph - 0.00 in Snow Light Snow
2:43 PM 30.2 °F 25.4 °F 30.2 °F 100% 29.89 in 0.8 mi West 4.6 mph - 0.01 in Snow Light Snow
2:52 PM 30.2 °F 25.4 °F 30.2 °F 100% 29.89 in 0.8 mi WNW 4.6 mph - 0.02 in Snow Light Snow
2:54 PM 30.9 °F 26.2 °F 30.0 °F 96% 29.90 in 0.8 mi WNW 4.6 mph - 0.02 in Snow Light Snow
3:54 PM 30.9 °F - 30.0 °F 96% 29.89 in 0.8 mi Calm Calm - 0.03 in Snow Light Snow
5:07 PM 30.2 °F - 30.2 °F 100% 29.87 in 0.5 mi Calm Calm - N/A Fog , Snow Snow
5:27 PM 30.2 °F - 30.2 °F 100% 29.87 in 0.5 mi Calm Calm - N/A Fog , Snow Snow
5:54 PM 30.9 °F - 30.9 °F 100% 29.87 in 1.0 mi Calm Calm - N/A Snow Light Snow
6:43 PM 30.2 °F - 30.2 °F 100% 29.86 in 1.0 mi Calm Calm - 0.03 in Snow Light Snow
6:54 PM 30.9 °F - 30.0 °F 96% 29.87 in 1.0 mi Calm Calm - 0.04 in Snow Light Snow
7:16 PM 30.2 °F - 30.2 °F 100% 29.86 in 1.2 mi Calm Calm - 0.01 in Snow Light Snow
7:24 PM 30.2 °F - 30.2 °F 100% 29.86 in 1.2 mi Calm Calm - 0.01 in Snow Light Snow
7:46 PM 30.2 °F - 30.2 °F 100% 29.86 in 1.0 mi Calm Calm - 0.02 in Snow Light Snow
7:54 PM 30.9 °F - 30.0 °F 96% 29.87 in 1.0 mi Calm Calm - 0.03 in Snow Light Snow
8:18 PM 30.2 °F - 30.2 °F 100% 29.86 in 1.0 mi Calm Calm - 0.01 in Snow Light Snow
8:54 PM 30.9 °F - 30.0 °F 96% 29.86 in 1.0 mi Calm Calm - 0.03 in Snow Light Snow
9:54 PM 30.0 °F - 30.0 °F 100% 29.86 in 1.0 mi Calm Calm - 0.03 in Snow Light Snow
10:54 PM 30.9 °F - 30.0 °F 96% 29.85 in 1.0 mi Calm Calm - 0.03 in Snow Light Snow
11:40 PM 30.2 °F - 30.2 °F 100% 29.83 in 0.8 mi Calm Calm - 0.03 in Snow Light Snow
11:54 PM 30.0 °F - 30.0 °F 100% 29.84 in 0.8 mi Calm Calm - 0.04 in Snow Light Snow